Location: Ferques
(50.8300°N, 1.7599°E)
Time: 15:06:22
(UTC+00:00)

USA 186 - Pass Details

Date: 19 May 2025
Orbit: 338 x 359 km, 97.0° (Epoch: 19 May)

Event Time Altitude Azimuth Distance (km) Brightness Sun altitude
Rises 20:34:38 0° 205° (SSW) 2,118 5.1 -7.3°
Reaches altitude 10° 20:37:09 10° 233° (SW) 1,288 4.3 -7.6°
Maximum altitude 20:38:42 14° 268° (W) 1,087 4.5 -7.8°
Drops below altitude 10° 20:40:17 10° 303° (WNW) 1,298 5.8 -7.9°
Sets 20:42:51 0° 330° (NNW) 2,149 7.2 -8.2°
